Flag for U.S.A. Weather past 2 weeks in Cumberland, Maryland, U.S.A.

Now
24 °F

Passing clouds.


Feels Like: 24 °F
Forecast: 28 / 37 °F
Wind: No wind

Location: Eastern West Virginia Regional Airport

Current Time: Dec 22, 2014 at 5:02:37 AM

Latest Report: Dec 22, 2014 at 3:53 AM


Visibility: 6 mi

Pressure: 30.28 "Hg

Humidity: 75%

Dew point: 17 °F

Location of CumberlandLocation

Historic Weather in Cumberland — Graph

°F

Cumberland temperature yesterday

Maximum temperature yesterday: 41 °F (at 1:53 PM)
Minimum temperature yesterday: 25 °F (at 10:53 PM)
Average temperature yesterday: 33 °F

Past Weeks' High & Low Weather Summary

 TemperatureHumidityPressure
High57 °F (Dec 15, 12:53 PM)89% (Dec 16, 10:53 AM)30.59 "Hg (Dec 16, 10:53 AM)
Low19 °F (Dec 20, 5:53 AM)20% (Dec 11, 8:53 PM)29.85 "Hg (Dec 11, 4:53 AM)
Average38 °F60%30.13 "Hg
* Reported Dec 7 3:53 AM — Dec 22 3:53 AM, Cumberland, Weather by CustomWeather, © 2014

Note: Actual official high and low records may vary slightly from our data, if they occured in-between our weather recording intervals... More about our weather records

Advertising

Cumberland weather history for previous 24 hours

 ConditionsComfort  
Time TempWeatherWind HumidityBarometerVisibility
3:53 AM
Dec 22
24 °FPassing clouds.No wind75%30.28 "Hg6 mi
2:53 AM23 °FClear.No wind78%30.31 "Hg6 mi
1:53 AM24 °FClear.No wind77%30.32 "Hg6 mi
12:53 AM24 °FClear.No wind77%30.32 "Hg6 mi
11:53 PM
Dec 21
26 °FClear.No wind74%30.32 "Hg6 mi
10:53 PM25 °FClear.No wind78%30.34 "Hg6 mi
9:53 PM29 °FClear.No wind69%30.33 "Hg6 mi
8:53 PM29 °FClear.3 mph69%30.32 "Hg6 mi
7:53 PM30 °FClear.No wind66%30.32 "Hg6 mi
6:53 PM31 °FClear.3 mph67%30.31 "Hg8 mi
5:53 PM33 °FClear.No wind61%30.32 "Hg7 mi
4:53 PM36 °FClear.7 mph54%30.29 "Hg10 mi
3:53 PM40 °FSunny.5 mph47%30.28 "Hg10 mi
2:53 PM41 °FSunny.5 mph45%30.28 "Hg10 mi
1:53 PM41 °FSunny.No wind45%30.29 "Hg10 mi
12:53 PM40 °FPassing clouds.5 mph49%30.31 "Hg10 mi
11:53 AM38 °FOvercast.No wind53%30.34 "Hg8 mi
10:53 AM35 °FOvercast.No wind59%30.36 "Hg7 mi
9:53 AM33 °FOvercast.No wind63%30.36 "Hg7 mi
8:53 AM32 °FOvercast.No wind64%30.36 "Hg7 mi
7:53 AM31 °FOvercast.No wind69%30.34 "Hg7 mi
6:53 AM32 °FOvercast.No wind66%30.33 "Hg7 mi
5:53 AM32 °FMostly cloudy.No wind66%30.32 "Hg7 mi
Weather by CustomWeather, © 2014

See weather overviewHow to use our weather pages